Zurück zum Katalog

STARLINK-38075

AktivKommunikationSSO
NORAD 100227·PAYLOAD·🇺🇸 United States

Gestartet Aug 4, 2026 von Vandenberg Space Force Base

Loading…

Nächste Überflüge (nächste 24 Stunden)

TLE

AktuellSource: Space-Track

Epoche: Sep 14, 2026, 22:26 UTC

1 A0227U 26177Q   26257.93478255  .00019847  00000-0  36547-3 0  9996
2 A0227  97.2834 308.7516 0001357  89.2272 270.9134 15.49204377  7579

Verfolge STARLINK-38075 in Echtzeit mit AllMySat

Download on the App Store